User: anonymous   Login
Location: Schommer Observatory
(40.5200°N, 74.4500°W)
Time: 02:13:43
(UTC-04:00)
Language:

Tiangong 2 - Orbit

View from above orbital plane
View from above orbital plane
View from above satellite
View from above satellite

Ground track
Ground track

The orbit data is extracted from the following two-line orbital elements,

1 41765U 16057A   18143.42050208  .00002961  00000-0  38283-4 0  9996
2 41765  42.7848 130.5603 0002377  77.8345  51.8668 15.61320049 96111
Epoch (UTC): 23 May 2018 10:05:31
Eccentricity: 0.0002377
inclination: 42.7848°
perigee height: 382 km
apogee height: 385 km
right ascension of ascending node: 130.5603°
argument of perigee: 77.8345°
revolutions per day: 15.61320049
mean anomaly at epoch: 51.8668°
orbit number at epoch: 9611

The dashed part of the orbit path shows where the satellite is in the earth's shadow,  

DLR